| time (UTC) | temp F | wind direction | speed MPH | gust MPH | rain 1hr in | rain 24hr in | rain mn in | humidity % | barometer mb |
| 20260906225039 | 60 | 50 | 35.0 | 48.0 | 0.00 | 0.00 | 0.00 | 80 | 1018.0 |
| 20260906224539 | 60 | 57 | 36.0 | 49.0 | 0.00 | 0.00 | 0.00 | 81 | 1018.0 |
| 20260906224423 | 60 | 57 | 36.0 | 49.0 | 0.00 | 0.00 | 0.00 | 81 | 1018.1 |
| 20260906224039 | 60 | 47 | 35.0 | 49.0 | 0.00 | 0.00 | 0.00 | 81 | 1018.0 |
| 20260906223923 | 60 | 47 | 35.0 | 49.0 | 0.00 | 0.00 | 0.00 | 81 | 1018.1 |
| 20260906223540 | 60 | 47 | 29.0 | 46.0 | 0.00 | 0.00 | 0.00 | 81 | 1018.0 |
| 20260906223423 | 60 | 47 | 29.0 | 46.0 | 0.00 | 0.00 | 0.00 | 81 | 1018.0 |
| 20260906222923 | 60 | 75 | 37.0 | 57.0 | 0.00 | 0.00 | 0.00 | 80 | 1018.0 |
| 20260906220923 | 60 | 85 | 14.0 | 44.0 | 0.00 | 0.00 | 0.00 | 81 | 1018.2 |
| 20260906220040 | 60 | 42 | 5.0 | 6.0 | 0.00 | 0.00 | 0.00 | 81 | 1018.0 |
| 20260906215923 | 60 | 42 | 5.0 | 6.0 | 0.00 | 0.00 | 0.00 | 81 | 1018.3 |
| 20260906215423 | 59 | 40 | 7.0 | 9.0 | 0.00 | 0.00 | 0.00 | 81 | 1018.5 |
| 20260906214540 | 59 | 42 | 5.0 | 7.0 | 0.00 | 0.00 | 0.00 | 82 | 1019.0 |
| 20260906214039 | 59 | 42 | 6.0 | 9.0 | 0.00 | 0.00 | 0.00 | 82 | 1019.0 |
| 20260906213515 | 59 | 42 | 6.0 | 8.0 | 0.00 | 0.00 | 0.00 | 83 | 1018.7 |
| 20260906213039 | 58 | 42 | 7.0 | 9.0 | 0.00 | 0.00 | 0.00 | 84 | 1019.0 |
| 20260906212924 | 58 | 42 | 7.0 | 9.0 | 0.00 | 0.00 | 0.00 | 84 | 1018.6 |
| 20260906212539 | 58 | 42 | 6.0 | 8.0 | 0.00 | 0.00 | 0.00 | 84 | 1019.0 |
| 20260906212423 | 58 | 42 | 6.0 | 8.0 | 0.00 | 0.00 | 0.00 | 84 | 1018.7 |
| 20260906211923 | 58 | 42 | 6.0 | 8.0 | 0.00 | 0.00 | 0.00 | 84 | 1018.7 |
| 20260906211423 | 58 | 44 | 5.0 | 6.0 | 0.00 | 0.00 | 0.00 | 85 | 1018.7 |
| 20260906211039 | 58 | 42 | 4.0 | 6.0 | 0.00 | 0.00 | 0.00 | 86 | 1019.0 |
| 20260906210542 | 58 | 43 | 3.0 | 4.0 | 0.00 | 0.00 | 0.00 | 86 | 1019.0 |
| 20260906210423 | 58 | 43 | 3.0 | 4.0 | 0.00 | 0.00 | 0.00 | 86 | 1018.7 |
| 20260906205924 | 58 | 43 | 3.0 | 3.0 | 0.00 | 0.00 | 0.00 | 85 | 1019.0 |
| 20260906205539 | 58 | 44 | 3.0 | 4.0 | 0.00 | 0.00 | 0.00 | 84 | 1019.0 |
| 20260906205039 | 58 | 44 | 4.0 | 9.0 | 0.00 | 0.00 | 0.00 | 84 | 1019.0 |
| 20260906204539 | 58 | 43 | 4.0 | 5.0 | 0.00 | 0.00 | 0.00 | 85 | 1019.0 |
| 20260906204423 | 58 | 43 | 4.0 | 5.0 | 0.00 | 0.00 | 0.00 | 85 | 1019.1 |
| 20260906203923 | 58 | 43 | 2.0 | 5.0 | 0.00 | 0.00 | 0.00 | 86 | 1019.1 |
| 20260906203423 | 58 | 41 | 5.0 | 7.0 | 0.00 | 0.00 | 0.00 | 84 | 1019.2 |
| 20260906203040 | 58 | 41 | 7.0 | 16.0 | 0.00 | 0.00 | 0.00 | 84 | 1019.0 |
| 20260906202923 | 58 | 41 | 7.0 | 16.0 | 0.00 | 0.00 | 0.00 | 84 | 1019.1 |
| 20260906202423 | 58 | 42 | 6.0 | 9.0 | 0.00 | 0.00 | 0.00 | 85 | 1019.1 |
| 20260906201923 | 58 | 36 | 7.0 | 17.0 | 0.00 | 0.00 | 0.00 | 85 | 1019.1 |
| 20260906201423 | 58 | 39 | 6.0 | 8.0 | 0.00 | 0.00 | 0.00 | 84 | 1019.2 |
| 20260906200924 | 58 | 34 | 4.0 | 6.0 | 0.00 | 0.00 | 0.00 | 85 | 1019.1 |
| 20260906200539 | 58 | 42 | 3.0 | 4.0 | 0.00 | 0.00 | 0.00 | 85 | 1019.0 |
| 20260906200423 | 58 | 42 | 3.0 | 4.0 | 0.00 | 0.00 | 0.00 | 85 | 1019.2 |
| 20260906200040 | 58 | 36 | 4.0 | 6.0 | 0.00 | 0.00 | 0.00 | 85 | 1019.0 |
| 20260906195925 | 58 | 36 | 4.0 | 6.0 | 0.00 | 0.00 | 0.00 | 85 | 1019.3 |
| 20260906195540 | 58 | 42 | 5.0 | 5.0 | 0.00 | 0.00 | 0.00 | 85 | 1019.0 |
| 20260906195039 | 58 | 38 | 4.0 | 5.0 | 0.00 | 0.00 | 0.00 | 85 | 1019.0 |
| 20260906194539 | 58 | 37 | 5.0 | 7.0 | 0.00 | 0.00 | 0.00 | 85 | 1019.0 |
| 20260906194040 | 58 | 40 | 6.0 | 8.0 | 0.00 | 0.00 | 0.00 | 85 | 1019.0 |
| 20260906193539 | 58 | 43 | 6.0 | 11.0 | 0.00 | 0.00 | 0.00 | 85 | 1019.0 |
| 20260906193039 | 58 | 43 | 7.0 | 10.0 | 0.00 | 0.00 | 0.00 | 85 | 1019.0 |
| 20260906192539 | 58 | 30 | 13.0 | 22.0 | 0.00 | 0.00 | 0.00 | 85 | 1019.0 |
| 20260906192423 | 58 | 30 | 13.0 | 22.0 | 0.00 | 0.00 | 0.00 | 85 | 1019.4 |
| 20260906192039 | 58 | 31 | 15.0 | 31.0 | 0.00 | 0.00 | 0.00 | 85 | 1019.0 |
| 20260906191923 | 58 | 31 | 15.0 | 31.0 | 0.00 | 0.00 | 0.00 | 85 | 1019.4 |
| 20260906191424 | 58 | 27 | 13.0 | 30.0 | 0.00 | 0.00 | 0.00 | 85 | 1019.5 |
| 20260906190923 | 58 | 30 | 11.0 | 29.0 | 0.00 | 0.00 | 0.00 | 85 | 1019.5 |
| 20260906190423 | 58 | 11 | 11.0 | 17.0 | 0.00 | 0.00 | 0.00 | 85 | 1019.5 |
| 20260906185923 | 58 | 11 | 11.0 | 26.0 | 0.00 | 0.00 | 0.00 | 86 | 1019.5 |
| 20260906185539 | 58 | 22 | 15.0 | 31.0 | 0.00 | 0.00 | 0.00 | 86 | 1020.0 |
| 20260906185423 | 58 | 22 | 15.0 | 31.0 | 0.00 | 0.00 | 0.00 | 86 | 1019.5 |
| 20260906184923 | 58 | 8 | 10.0 | 22.0 | 0.00 | 0.00 | 0.00 | 86 | 1019.5 |
| 20260906184424 | 58 | 27 | 14.0 | 34.0 | 0.00 | 0.00 | 0.00 | 87 | 1019.6 |
| 20260906183424 | 57 | 9 | 10.0 | 28.0 | 0.00 | 0.00 | 0.00 | 87 | 1019.6 |
| 20260906182923 | 57 | 10 | 9.0 | 27.0 | 0.00 | 0.00 | 0.00 | 87 | 1019.7 |
| 20260906182039 | 57 | 349 | 8.0 | 11.0 | 0.00 | 0.00 | 0.00 | 88 | 1020.0 |
| 20260906181540 | 57 | 346 | 7.0 | 10.0 | 0.00 | 0.00 | 0.00 | 88 | 1020.0 |
| 20260906181039 | 57 | 340 | 7.0 | 10.0 | 0.00 | 0.00 | 0.00 | 88 | 1020.0 |
| 20260906180540 | 57 | 345 | 8.0 | 10.0 | 0.00 | 0.00 | 0.00 | 89 | 1020.0 |
| 20260906180424 | 57 | 345 | 8.0 | 10.0 | 0.00 | 0.00 | 0.00 | 89 | 1020.0 |
| 20260906175923 | 57 | 346 | 7.0 | 10.0 | 0.00 | 0.00 | 0.00 | 89 | 1020.0 |
| 20260906175540 | 58 | 344 | 7.0 | 10.0 | 0.00 | 0.00 | 0.00 | 88 | 1020.0 |
| 20260906175423 | 58 | 344 | 7.0 | 10.0 | 0.00 | 0.00 | 0.00 | 88 | 1020.1 |
| 20260906174923 | 58 | 353 | 10.0 | 27.0 | 0.00 | 0.00 | 0.00 | 88 | 1020.0 |
| 20260906174423 | 58 | 23 | 12.0 | 33.0 | 0.00 | 0.00 | 0.00 | 88 | 1020.0 |
| 20260906174039 | 58 | 345 | 6.0 | 12.0 | 0.00 | 0.00 | 0.00 | 88 | 1020.0 |
| 20260906173924 | 58 | 345 | 6.0 | 12.0 | 0.00 | 0.00 | 0.00 | 88 | 1020.0 |
| 20260906173423 | 58 | 343 | 7.0 | 10.0 | 0.00 | 0.00 | 0.00 | 89 | 1020.0 |
| 20260906173039 | 58 | 332 | 8.0 | 19.0 | 0.00 | 0.00 | 0.00 | 89 | 1020.0 |
| 20260906172540 | 58 | 340 | 7.0 | 9.0 | 0.00 | 0.00 | 0.00 | 88 | 1020.0 |
| 20260906172039 | 58 | 343 | 7.0 | 9.0 | 0.00 | 0.00 | 0.00 | 89 | 1020.0 |
| 20260906171539 | 58 | 343 | 7.0 | 10.0 | 0.00 | 0.00 | 0.00 | 90 | 1020.0 |
| 20260906171039 | 57 | 345 | 7.0 | 10.0 | 0.00 | 0.00 | 0.00 | 91 | 1020.0 |
| 20260906170542 | 57 | 344 | 8.0 | 13.0 | 0.00 | 0.00 | 0.00 | 91 | 1020.0 |
| 20260906170424 | 57 | 344 | 8.0 | 13.0 | 0.00 | 0.00 | 0.00 | 91 | 1020.2 |
| 20260906165923 | 57 | 346 | 8.0 | 11.0 | 0.00 | 0.00 | 0.00 | 91 | 1020.1 |
| 20260906165423 | 57 | 341 | 8.0 | 14.0 | 0.00 | 0.00 | 0.00 | 91 | 1020.1 |
| 20260906164923 | 57 | 348 | 8.0 | 15.0 | 0.00 | 0.00 | 0.00 | 91 | 1020.1 |
| 20260906164423 | 57 | 342 | 7.0 | 10.0 | 0.00 | 0.00 | 0.00 | 92 | 1020.0 |
| 20260906163923 | 57 | 17 | 9.0 | 27.0 | 0.00 | 0.00 | 0.00 | 92 | 1019.8 |
| 20260906163541 | 57 | 354 | 8.0 | 11.0 | 0.00 | 0.00 | 0.00 | 93 | 1020.0 |
| 20260906163040 | 57 | 346 | 7.0 | 11.0 | 0.00 | 0.00 | 0.00 | 94 | 1020.0 |
| 20260906162923 | 57 | 346 | 7.0 | 11.0 | 0.00 | 0.00 | 0.00 | 94 | 1019.8 |
| 20260906162424 | 56 | 342 | 7.0 | 10.0 | 0.00 | 0.00 | 0.00 | 94 | 1019.7 |
| 20260906162040 | 56 | 346 | 6.0 | 11.0 | 0.00 | 0.00 | 0.00 | 94 | 1020.0 |
| 20260906161539 | 56 | 353 | 6.0 | 9.0 | 0.00 | 0.00 | 0.00 | 96 | 1020.0 |
| 20260906161039 | 56 | 1 | 7.0 | 18.0 | 0.00 | 0.00 | 0.00 | 96 | 1020.0 |
| 20260906160923 | 56 | 1 | 7.0 | 18.0 | 0.00 | 0.00 | 0.00 | 96 | 1019.8 |
| 20260906160539 | 55 | 341 | 7.0 | 9.0 | 0.00 | 0.00 | 0.00 | 97 | 1020.0 |
| 20260906160039 | 55 | 331 | 7.0 | 10.0 | 0.00 | 0.00 | 0.00 | 97 | 1020.0 |
| 20260906155923 | 55 | 331 | 7.0 | 10.0 | 0.00 | 0.00 | 0.00 | 97 | 1019.8 |
| 20260906155423 | 55 | 321 | 4.0 | 6.0 | 0.00 | 0.00 | 0.00 | 98 | 1019.9 |
| 20260906155039 | 55 | 315 | 5.0 | 9.0 | 0.00 | 0.00 | 0.00 | 98 | 1020.0 |
| 20260906154924 | 55 | 315 | 5.0 | 9.0 | 0.00 | 0.00 | 0.00 | 98 | 1019.9 |
| 20260906154539 | 55 | 303 | 2.0 | 3.0 | 0.00 | 0.00 | 0.00 | 98 | 1020.0 |
| 20260906154039 | 55 | 342 | 4.0 | 5.0 | 0.00 | 0.00 | 0.00 | 98 | 1020.0 |
| 20260906153540 | 55 | 311 | 3.0 | 4.0 | 0.00 | 0.00 | 0.00 | 98 | 1020.0 |
| 20260906153039 | 55 | 329 | 3.0 | 4.0 | 0.00 | 0.00 | 0.00 | 98 | 1020.0 |
| 20260906152539 | 55 | 34 | 3.0 | 4.0 | 0.00 | 0.00 | 0.00 | 98 | 1020.0 |
| 20260906152423 | 55 | 34 | 3.0 | 4.0 | 0.00 | 0.00 | 0.00 | 98 | 1020.0 |
| 20260906151923 | 54 | 333 | 2.0 | 3.0 | 0.00 | 0.00 | 0.00 | 98 | 1020.1 |
| 20260906151423 | 54 | 262 | 2.0 | 3.0 | 0.00 | 0.00 | 0.00 | 98 | 1020.1 |
| 20260906150923 | 54 | 353 | 3.0 | 4.0 | 0.00 | 0.00 | 0.00 | 97 | 1020.1 |
| 20260906150423 | 54 | 307 | 2.0 | 2.0 | 0.00 | 0.00 | 0.00 | 97 | 1020.1 |
| 20260906145924 | 54 | 12 | 4.0 | 5.0 | 0.00 | 0.00 | 0.00 | 98 | 1020.1 |
| 20260906145423 | 54 | 324 | 2.0 | 3.0 | 0.00 | 0.00 | 0.00 | 98 | 1020.1 |
| 20260906144923 | 54 | 340 | 1.0 | 2.0 | 0.00 | 0.00 | 0.00 | 98 | 1020.3 |
| 20260906144539 | 54 | 343 | 2.0 | 2.0 | 0.00 | 0.00 | 0.00 | 98 | 1020.0 |
| 20260906144424 | 54 | 4 | 2.0 | 2.0 | 0.00 | 0.00 | 0.00 | 98 | 1020.2 |
| 20260906143925 | 54 | 290 | 2.0 | 3.0 | 0.00 | 0.00 | 0.00 | 98 | 1020.3 |
| 20260906143423 | 54 | 333 | 2.0 | 3.0 | 0.00 | 0.00 | 0.00 | 98 | 1020.2 |
| 20260906142923 | 54 | 322 | 3.0 | 4.0 | 0.00 | 0.00 | 0.00 | 98 | 1020.3 |
| 20260906142423 | 54 | 323 | 2.0 | 4.0 | 0.00 | 0.00 | 0.00 | 98 | 1020.3 |
| 20260906141923 | 54 | 328 | 2.0 | 3.0 | 0.00 | 0.00 | 0.00 | 98 | 1020.3 |
| 20260906141539 | 53 | 326 | 2.0 | 2.0 | 0.00 | 0.00 | 0.00 | 98 | 1021.0 |
| 20260906141423 | 53 | 312 | 2.0 | 3.0 | 0.00 | 0.00 | 0.00 | 98 | 1020.3 |
| 20260906140923 | 53 | 40 | 2.0 | 2.0 | 0.00 | 0.00 | 0.00 | 98 | 1020.3 |
| 20260906140540 | 53 | 44 | 2.0 | 3.0 | 0.00 | 0.00 | 0.00 | 98 | 1020.0 |
| 20260906140423 | 53 | 236 | 2.0 | 4.0 | 0.00 | 0.00 | 0.00 | 98 | 1020.3 |
| 20260906140040 | 53 | 287 | 2.0 | 2.0 | 0.00 | 0.00 | 0.00 | 98 | 1020.0 |
| 20260906135539 | 53 | 135 | 3.0 | 4.0 | 0.00 | 0.00 | 0.00 | 98 | 1020.0 |
| 20260906135039 | 53 | 282 | 2.0 | 2.0 | 0.00 | 0.00 | 0.00 | 98 | 1020.0 |
| 20260906134540 | 53 | 329 | 2.0 | 3.0 | 0.00 | 0.00 | 0.00 | 98 | 1020.0 |
| 20260906134039 | 53 | 303 | 2.0 | 3.0 | 0.00 | 0.00 | 0.00 | 98 | 1020.0 |
| 20260906133539 | 53 | 353 | 1.0 | 2.0 | 0.00 | 0.00 | 0.00 | 98 | 1021.0 |
| 20260906133423 | 53 | 22 | 2.0 | 3.0 | 0.00 | 0.00 | 0.00 | 98 | 1020.6 |
| 20260906133039 | 53 | 300 | 1.0 | 2.0 | 0.00 | 0.00 | 0.00 | 98 | 1021.0 |
| 20260906132923 | 53 | 355 | 2.0 | 2.0 | 0.00 | 0.00 | 0.00 | 98 | 1020.5 |
| 20260906132540 | 53 | 360 | 2.0 | 2.0 | 0.00 | 0.00 | 0.00 | 98 | 1021.0 |
| 20260906132424 | 53 | 307 | 1.0 | 2.0 | 0.00 | 0.00 | 0.00 | 98 | 1020.3 |
| 20260906132040 | 53 | 295 | 1.0 | 2.0 | 0.00 | 0.00 | 0.00 | 98 | 1020.0 |
| 20260906131540 | 53 | 278 | 1.0 | 2.0 | 0.00 | 0.00 | 0.00 | 98 | 1020.0 |
| 20260906131423 | 53 | 231 | 2.0 | 3.0 | 0.00 | 0.00 | 0.00 | 98 | 1020.5 |
| 20260906130923 | 53 | 259 | 3.0 | 4.0 | 0.00 | 0.00 | 0.00 | 98 | 1020.6 |
| 20260906130540 | 53 | 198 | 2.0 | 3.0 | 0.00 | 0.00 | 0.00 | 98 | 1021.0 |
| 20260906130039 | 53 | 275 | 2.0 | 4.0 | 0.00 | 0.00 | 0.00 | 98 | 1021.0 |
| 20260906125923 | 53 | 270 | 2.0 | 3.0 | 0.00 | 0.00 | 0.00 | 98 | 1020.6 |
| 20260906125539 | 53 | 227 | 2.0 | 3.0 | 0.00 | 0.00 | 0.00 | 98 | 1021.0 |
| 20260906125040 | 53 | 305 | 2.0 | 4.0 | 0.00 | 0.00 | 0.00 | 98 | 1021.0 |
| 20260906124929 | 53 | 240 | 3.0 | 4.0 | 0.00 | 0.00 | 0.00 | 98 | 1020.8 |
| 20260906124539 | 53 | 204 | 3.0 | 4.0 | 0.00 | 0.00 | 0.00 | 98 | 1021.0 |
| 20260906124424 | 53 | 9 | 2.0 | 2.0 | 0.00 | 0.00 | 0.00 | 98 | 1020.8 |
| 20260906123923 | 53 | 307 | 1.0 | 2.0 | 0.00 | 0.00 | 0.00 | 98 | 1020.7 |
| 20260906123423 | 53 | 343 | 2.0 | 2.0 | 0.00 | 0.00 | 0.00 | 98 | 1020.8 |
| 20260906123039 | 53 | 232 | 3.0 | 4.0 | 0.00 | 0.00 | 0.00 | 98 | 1021.0 |
| 20260906122926 | 53 | 232 | 3.0 | 4.0 | 0.00 | 0.00 | 0.00 | 98 | 1020.8 |
| 20260906122423 | 53 | 202 | 3.0 | 4.0 | 0.00 | 0.00 | 0.00 | 98 | 1020.9 |
| 20260906121924 | 53 | 84 | 2.0 | 2.0 | 0.00 | 0.00 | 0.00 | 98 | 1020.7 |
| 20260906121423 | 53 | 109 | 1.0 | 2.0 | 0.00 | 0.00 | 0.00 | 98 | 1020.7 |
| 20260906120923 | 53 | 183 | 2.0 | 2.0 | 0.00 | 0.00 | 0.00 | 98 | 1020.7 |
| 20260906120424 | 53 | 23 | 2.0 | 2.0 | 0.00 | 0.00 | 0.00 | 97 | 1020.8 |
| 20260906120040 | 53 | 190 | 3.0 | 4.0 | 0.00 | 0.00 | 0.00 | 97 | 1021.0 |
| 20260906115539 | 53 | 196 | 1.0 | 2.0 | 0.00 | 0.00 | 0.00 | 97 | 1021.0 |
| 20260906115423 | 53 | 43 | 2.0 | 2.0 | 0.00 | 0.00 | 0.00 | 97 | 1020.8 |
| 20260906114923 | 53 | 360 | 2.0 | 3.0 | 0.00 | 0.00 | 0.00 | 97 | 1020.7 |
| 20260906114423 | 53 | 16 | 2.0 | 3.0 | 0.00 | 0.00 | 0.00 | 97 | 1020.6 |
| 20260906113923 | 53 | 315 | 1.0 | 2.0 | 0.00 | 0.00 | 0.00 | 97 | 1020.6 |
| 20260906113423 | 53 | 30 | 2.0 | 4.0 | 0.00 | 0.00 | 0.00 | 97 | 1020.6 |
| 20260906112923 | 53 | 38 | 2.0 | 3.0 | 0.00 | 0.00 | 0.00 | 97 | 1020.7 |
| 20260906112539 | 53 | 1 | 2.0 | 4.0 | 0.00 | 0.00 | 0.00 | 97 | 1021.0 |
| 20260906112039 | 53 | 18 | 2.0 | 3.0 | 0.00 | 0.00 | 0.00 | 97 | 1021.0 |
| 20260906111923 | 53 | 192 | 2.0 | 2.0 | 0.00 | 0.00 | 0.00 | 97 | 1020.9 |
| 20260906111423 | 53 | 286 | 1.0 | 1.0 | 0.00 | 0.00 | 0.00 | 97 | 1021.0 |
| 20260906111039 | 53 | 10 | 2.0 | 3.0 | 0.00 | 0.00 | 0.00 | 97 | 1021.0 |
| 20260906110923 | 53 | 349 | 3.0 | 3.0 | 0.00 | 0.00 | 0.00 | 97 | 1021.0 |
| 20260906110423 | 53 | 70 | 2.0 | 2.0 | 0.00 | 0.00 | 0.00 | 97 | 1021.0 |
| 20260906105923 | 53 | 47 | 3.0 | 3.0 | 0.00 | 0.00 | 0.00 | 97 | 1021.1 |
| 20260906105423 | 53 | 25 | 2.0 | 4.0 | 0.00 | 0.00 | 0.00 | 97 | 1021.1 |
| 20260906104923 | 53 | 360 | 2.0 | 3.0 | 0.00 | 0.00 | 0.00 | 97 | 1021.1 |
| 20260906104423 | 53 | 358 | 2.0 | 2.0 | 0.00 | 0.00 | 0.00 | 97 | 1021.1 |
| 20260906103923 | 53 | 47 | 2.0 | 3.0 | 0.00 | 0.00 | 0.00 | 97 | 1021.0 |
| 20260906103539 | 53 | 95 | 2.0 | 2.0 | 0.00 | 0.00 | 0.00 | 97 | 1021.0 |
| 20260906103424 | 53 | 347 | 2.0 | 2.0 | 0.00 | 0.00 | 0.00 | 97 | 1021.2 |
| 20260906102923 | 53 | 183 | 2.0 | 3.0 | 0.00 | 0.00 | 0.00 | 97 | 1021.2 |
| 20260906102539 | 53 | 50 | 2.0 | 2.0 | 0.00 | 0.00 | 0.00 | 97 | 1021.0 |
| 20260906102039 | 53 | 11 | 2.0 | 3.0 | 0.00 | 0.00 | 0.00 | 97 | 1021.0 |
| 20260906101539 | 53 | 41 | 2.0 | 4.0 | 0.00 | 0.00 | 0.00 | 97 | 1021.0 |
| 20260906101040 | 53 | 38 | 4.0 | 6.0 | 0.00 | 0.00 | 0.00 | 97 | 1021.0 |
| 20260906100923 | 53 | 38 | 4.0 | 6.0 | 0.00 | 0.00 | 0.00 | 97 | 1021.2 |
| 20260906100540 | 53 | 31 | 5.0 | 6.0 | 0.00 | 0.00 | 0.00 | 97 | 1021.0 |
| 20260906100039 | 53 | 38 | 6.0 | 7.0 | 0.00 | 0.00 | 0.00 | 97 | 1021.0 |
| 20260906095540 | 53 | 33 | 4.0 | 5.0 | 0.00 | 0.00 | 0.00 | 97 | 1021.0 |
| 20260906095039 | 53 | 40 | 3.0 | 5.0 | 0.00 | 0.00 | 0.00 | 97 | 1021.0 |
| 20260906094539 | 53 | 53 | 2.0 | 3.0 | 0.00 | 0.00 | 0.00 | 97 | 1021.0 |
| 20260906094423 | 53 | 31 | 2.0 | 2.0 | 0.00 | 0.00 | 0.00 | 97 | 1021.4 |
| 20260906094039 | 53 | 28 | 5.0 | 6.0 | 0.00 | 0.00 | 0.00 | 97 | 1021.0 |
| 20260906093540 | 53 | 29 | 4.0 | 5.0 | 0.00 | 0.00 | 0.00 | 97 | 1021.0 |
| 20260906093039 | 53 | 17 | 3.0 | 4.0 | 0.00 | 0.00 | 0.00 | 97 | 1021.0 |
| 20260906092923 | 53 | 26 | 3.0 | 4.0 | 0.00 | 0.00 | 0.00 | 97 | 1021.4 |
| 20260906092539 | 53 | 29 | 4.0 | 5.0 | 0.00 | 0.00 | 0.00 | 97 | 1022.0 |
| 20260906092423 | 53 | 30 | 4.0 | 6.0 | 0.00 | 0.00 | 0.00 | 97 | 1021.4 |
| 20260906091923 | 53 | 31 | 3.0 | 5.0 | 0.00 | 0.00 | 0.00 | 97 | 1021.5 |
| 20260906091423 | 53 | 42 | 4.0 | 5.0 | 0.00 | 0.00 | 0.00 | 96 | 1021.6 |
| 20260906090925 | 53 | 14 | 4.0 | 4.0 | 0.00 | 0.00 | 0.00 | 96 | 1021.6 |
| 20260906090423 | 53 | 34 | 4.0 | 4.0 | 0.00 | 0.00 | 0.00 | 96 | 1021.6 |
| 20260906090039 | 53 | 21 | 2.0 | 3.0 | 0.00 | 0.00 | 0.00 | 96 | 1022.0 |
| 20260906085539 | 53 | 33 | 4.0 | 6.0 | 0.00 | 0.00 | 0.00 | 96 | 1022.0 |
| 20260906085039 | 53 | 22 | 4.0 | 5.0 | 0.00 | 0.00 | 0.00 | 96 | 1022.0 |
| 20260906084539 | 53 | 2 | 3.0 | 4.0 | 0.00 | 0.00 | 0.00 | 95 | 1022.0 |
| 20260906084039 | 53 | 16 | 4.0 | 4.0 | 0.00 | 0.00 | 0.00 | 95 | 1022.0 |
| 20260906083540 | 53 | 15 | 4.0 | 4.0 | 0.00 | 0.00 | 0.00 | 95 | 1022.0 |
| 20260906083423 | 53 | 2 | 3.0 | 4.0 | 0.00 | 0.00 | 0.00 | 95 | 1022.0 |
| 20260906083039 | 53 | 12 | 3.0 | 3.0 | 0.00 | 0.00 | 0.00 | 95 | 1022.0 |
| 20260906082923 | 53 | 7 | 3.0 | 4.0 | 0.00 | 0.00 | 0.00 | 95 | 1022.0 |
| 20260906082539 | 53 | 360 | 3.0 | 4.0 | 0.00 | 0.00 | 0.00 | 95 | 1022.0 |
| 20260906082039 | 53 | 20 | 4.0 | 4.0 | 0.00 | 0.00 | 0.00 | 95 | 1022.0 |
| 20260906081539 | 53 | 10 | 2.0 | 3.0 | 0.00 | 0.00 | 0.00 | 95 | 1022.0 |
| 20260906081423 | 53 | 10 | 3.0 | 3.0 | 0.00 | 0.00 | 0.00 | 95 | 1022.4 |
| 20260906080925 | 53 | 334 | 2.0 | 2.0 | 0.00 | 0.00 | 0.00 | 95 | 1022.4 |
| 20260906080539 | 53 | 333 | 2.0 | 2.0 | 0.00 | 0.00 | 0.00 | 95 | 1022.0 |
| 20260906080423 | 53 | 248 | 1.0 | 2.0 | 0.00 | 0.00 | 0.00 | 95 | 1022.4 |
| 20260906080039 | 53 | 326 | 2.0 | 3.0 | 0.00 | 0.00 | 0.00 | 95 | 1022.0 |
| 20260906075924 | 53 | 318 | 2.0 | 2.0 | 0.00 | 0.00 | 0.00 | 94 | 1022.4 |
| 20260906075423 | 53 | 344 | 2.0 | 2.0 | 0.00 | 0.00 | 0.00 | 94 | 1022.4 |
| 20260906074923 | 53 | 2 | 3.0 | 3.0 | 0.00 | 0.00 | 0.00 | 94 | 1022.4 |
| 20260906074423 | 53 | 321 | 2.0 | 3.0 | 0.00 | 0.00 | 0.00 | 94 | 1022.4 |
| 20260906073923 | 53 | 352 | 2.0 | 2.0 | 0.00 | 0.00 | 0.00 | 94 | 1022.6 |
| 20260906073424 | 53 | 242 | 2.0 | 2.0 | 0.00 | 0.00 | 0.00 | 94 | 1022.6 |
| 20260906072923 | 53 | 344 | 2.0 | 2.0 | 0.00 | 0.00 | 0.00 | 94 | 1022.5 |
| 20260906072424 | 53 | 278 | 1.0 | 2.0 | 0.00 | 0.00 | 0.00 | 93 | 1022.4 |
| 20260906071924 | 53 | 328 | 3.0 | 4.0 | 0.00 | 0.00 | 0.00 | 93 | 1022.3 |
| 20260906071540 | 53 | 345 | 3.0 | 3.0 | 0.00 | 0.00 | 0.00 | 93 | 1022.0 |
| 20260906071039 | 53 | 337 | 3.0 | 3.0 | 0.00 | 0.00 | 0.00 | 93 | 1022.0 |
| 20260906070923 | 53 | 359 | 4.0 | 4.0 | 0.00 | 0.00 | 0.00 | 93 | 1022.2 |
| 20260906070423 | 53 | 338 | 2.0 | 3.0 | 0.00 | 0.00 | 0.00 | 93 | 1022.2 |
| 20260906065923 | 53 | 358 | 3.0 | 3.0 | 0.00 | 0.00 | 0.00 | 93 | 1022.3 |
| 20260906065541 | 53 | 313 | 2.0 | 2.0 | 0.00 | 0.00 | 0.00 | 93 | 1022.0 |
| 20260906065423 | 53 | 325 | 2.0 | 3.0 | 0.00 | 0.00 | 0.00 | 93 | 1022.3 |
| 20260906065040 | 53 | 358 | 3.0 | 3.0 | 0.00 | 0.00 | 0.00 | 93 | 1022.0 |
| 20260906064540 | 53 | 357 | 3.0 | 3.0 | 0.00 | 0.00 | 0.00 | 93 | 1022.0 |
| 20260906064039 | 53 | 354 | 3.0 | 3.0 | 0.00 | 0.00 | 0.00 | 93 | 1022.0 |
| 20260906063923 | 53 | 360 | 3.0 | 4.0 | 0.00 | 0.00 | 0.00 | 93 | 1022.3 |
| 20260906063540 | 53 | 343 | 3.0 | 4.0 | 0.00 | 0.00 | 0.00 | 93 | 1022.0 |
| 20260906063040 | 53 | 2 | 3.0 | 4.0 | 0.00 | 0.00 | 0.00 | 93 | 1022.0 |
| 20260906062923 | 53 | 335 | 3.0 | 3.0 | 0.00 | 0.00 | 0.00 | 93 | 1022.4 |
| 20260906062424 | 53 | 355 | 3.0 | 4.0 | 0.00 | 0.00 | 0.00 | 93 | 1022.4 |
| 20260906061923 | 53 | 344 | 3.0 | 3.0 | 0.00 | 0.00 | 0.00 | 93 | 1022.5 |
| 20260906061539 | 53 | 349 | 3.0 | 4.0 | 0.00 | 0.00 | 0.00 | 93 | 1023.0 |
| 20260906061423 | 53 | 346 | 3.0 | 4.0 | 0.00 | 0.00 | 0.00 | 93 | 1022.5 |
| 20260906061039 | 53 | 352 | 3.0 | 4.0 | 0.00 | 0.00 | 0.00 | 93 | 1023.0 |
| 20260906060539 | 53 | 346 | 3.0 | 4.0 | 0.00 | 0.00 | 0.00 | 93 | 1023.0 |
| 20260906060040 | 53 | 355 | 3.0 | 4.0 | 0.00 | 0.00 | 0.00 | 93 | 1022.0 |
| 20260906055923 | 53 | 330 | 2.0 | 3.0 | 0.00 | 0.00 | 0.00 | 93 | 1022.4 |
| 20260906055539 | 53 | 358 | 3.0 | 3.0 | 0.00 | 0.00 | 0.00 | 93 | 1022.0 |
| 20260906055039 | 53 | 338 | 3.0 | 4.0 | 0.00 | 0.00 | 0.00 | 93 | 1022.0 |
| 20260906054539 | 53 | 304 | 4.0 | 4.0 | 0.00 | 0.00 | 0.00 | 93 | 1022.0 |
| 20260906054039 | 53 | 357 | 3.0 | 4.0 | 0.00 | 0.00 | 0.00 | 93 | 1022.0 |
| 20260906053541 | 53 | 359 | 4.0 | 4.0 | 0.00 | 0.00 | 0.00 | 93 | 1022.0 |
| 20260906053039 | 53 | 351 | 4.0 | 4.0 | 0.00 | 0.00 | 0.00 | 93 | 1022.0 |
| 20260906052540 | 53 | 354 | 3.0 | 3.0 | 0.00 | 0.00 | 0.00 | 93 | 1022.0 |
| 20260906052424 | 53 | 359 | 4.0 | 4.0 | 0.00 | 0.00 | 0.00 | 93 | 1022.4 |
| 20260906052039 | 53 | 353 | 3.0 | 4.0 | 0.00 | 0.00 | 0.00 | 93 | 1022.0 |
| 20260906051539 | 53 | 335 | 2.0 | 3.0 | 0.00 | 0.00 | 0.00 | 93 | 1022.0 |
| 20260906051423 | 53 | 335 | 2.0 | 3.0 | 0.00 | 0.00 | 0.00 | 93 | 1022.4 |
| 20260906050923 | 53 | 353 | 3.0 | 4.0 | 0.00 | 0.00 | 0.00 | 93 | 1022.3 |
| 20260906050423 | 53 | 358 | 3.0 | 4.0 | 0.00 | 0.00 | 0.00 | 93 | 1022.2 |
| 20260906050039 | 53 | 336 | 3.0 | 3.0 | 0.00 | 0.00 | 0.00 | 93 | 1022.0 |
| 20260906045540 | 53 | 7 | 3.0 | 4.0 | 0.00 | 0.00 | 0.00 | 93 | 1022.0 |
| 20260906045039 | 53 | 10 | 3.0 | 4.0 | 0.00 | 0.00 | 0.00 | 93 | 1022.0 |
| 20260906044539 | 53 | 12 | 4.0 | 4.0 | 0.00 | 0.00 | 0.00 | 93 | 1022.0 |
| 20260906044423 | 53 | 13 | 4.0 | 4.0 | 0.00 | 0.00 | 0.00 | 93 | 1022.2 |
| 20260906043923 | 53 | 353 | 4.0 | 5.0 | 0.00 | 0.00 | 0.00 | 93 | 1022.2 |
| 20260906043423 | 53 | 1 | 4.0 | 5.0 | 0.00 | 0.00 | 0.00 | 92 | 1022.2 |
| 20260906042923 | 53 | 16 | 4.0 | 5.0 | 0.00 | 0.00 | 0.00 | 92 | 1022.2 |
| 20260906042423 | 53 | 360 | 4.0 | 5.0 | 0.00 | 0.00 | 0.00 | 92 | 1022.2 |
| 20260906041924 | 53 | 8 | 4.0 | 4.0 | 0.00 | 0.00 | 0.00 | 92 | 1022.3 |
| 20260906041539 | 53 | 7 | 4.0 | 4.0 | 0.00 | 0.00 | 0.00 | 92 | 1022.0 |
| 20260906041424 | 53 | 8 | 4.0 | 5.0 | 0.00 | 0.00 | 0.00 | 92 | 1022.3 |
| 20260906040923 | 53 | 9 | 4.0 | 5.0 | 0.00 | 0.00 | 0.00 | 92 | 1022.3 |
| 20260906040424 | 53 | 3 | 5.0 | 6.0 | 0.00 | 0.00 | 0.00 | 91 | 1022.2 |
| 20260906035923 | 53 | 14 | 5.0 | 6.0 | 0.00 | 0.00 | 0.00 | 92 | 1022.3 |
| 20260906035541 | 54 | 17 | 5.0 | 5.0 | 0.00 | 0.00 | 0.00 | 91 | 1022.0 |
| 20260906035423 | 54 | 21 | 5.0 | 6.0 | 0.00 | 0.00 | 0.00 | 91 | 1022.4 |
| 20260906035039 | 54 | 19 | 5.0 | 6.0 | 0.00 | 0.00 | 0.00 | 91 | 1023.0 |
| 20260906034539 | 54 | 16 | 5.0 | 6.0 | 0.00 | 0.00 | 0.00 | 91 | 1023.0 |
| 20260906034039 | 54 | 11 | 4.0 | 4.0 | 0.00 | 0.00 | 0.00 | 91 | 1022.0 |
| 20260906033923 | 54 | 9 | 4.0 | 4.0 | 0.00 | 0.00 | 0.00 | 91 | 1022.4 |
| 20260906033539 | 54 | 356 | 4.0 | 4.0 | 0.00 | 0.00 | 0.00 | 91 | 1022.0 |
| 20260906033039 | 54 | 349 | 4.0 | 4.0 | 0.00 | 0.00 | 0.00 | 91 | 1022.0 |
| 20260906032539 | 54 | 5 | 4.0 | 4.0 | 0.00 | 0.00 | 0.00 | 91 | 1022.0 |
| 20260906032039 | 54 | 3 | 4.0 | 4.0 | 0.00 | 0.00 | 0.00 | 91 | 1022.0 |
| 20260906031540 | 54 | 347 | 3.0 | 4.0 | 0.00 | 0.00 | 0.00 | 91 | 1022.0 |
| 20260906031423 | 54 | 9 | 4.0 | 4.0 | 0.00 | 0.00 | 0.00 | 91 | 1022.3 |
| 20260906031039 | 54 | 12 | 4.0 | 4.0 | 0.00 | 0.00 | 0.00 | 91 | 1022.0 |
| 20260906030539 | 54 | 330 | 4.0 | 5.0 | 0.00 | 0.00 | 0.00 | 91 | 1022.0 |
| 20260906030040 | 54 | 354 | 4.0 | 4.0 | 0.00 | 0.00 | 0.00 | 90 | 1022.0 |
| 20260906025539 | 54 | 359 | 5.0 | 5.0 | 0.00 | 0.00 | 0.00 | 90 | 1022.0 |
| 20260906025424 | 54 | 341 | 4.0 | 4.0 | 0.00 | 0.00 | 0.00 | 90 | 1022.4 |
| 20260906025039 | 54 | 335 | 4.0 | 4.0 | 0.00 | 0.00 | 0.00 | 90 | 1022.0 |
| 20260906024924 | 54 | 356 | 4.0 | 4.0 | 0.00 | 0.00 | 0.00 | 90 | 1022.4 |
| 20260906024539 | 54 | 345 | 4.0 | 4.0 | 0.00 | 0.00 | 0.00 | 90 | 1023.0 |
| 20260906024040 | 54 | 351 | 5.0 | 5.0 | 0.00 | 0.00 | 0.00 | 90 | 1022.0 |
| 20260906023923 | 54 | 320 | 4.0 | 4.0 | 0.00 | 0.00 | 0.00 | 90 | 1022.4 |
| 20260906023539 | 54 | 347 | 4.0 | 5.0 | 0.00 | 0.00 | 0.00 | 90 | 1022.0 |
| 20260906023423 | 54 | 347 | 4.0 | 4.0 | 0.00 | 0.00 | 0.00 | 90 | 1022.4 |
| 20260906023040 | 54 | 338 | 3.0 | 3.0 | 0.00 | 0.00 | 0.00 | 90 | 1022.0 |
| 20260906022923 | 54 | 332 | 4.0 | 4.0 | 0.00 | 0.00 | 0.00 | 90 | 1022.4 |
| 20260906022424 | 54 | 322 | 3.0 | 4.0 | 0.00 | 0.00 | 0.00 | 90 | 1022.4 |
| 20260906021923 | 54 | 328 | 3.0 | 4.0 | 0.00 | 0.00 | 0.00 | 89 | 1022.4 |
| 20260906021424 | 54 | 314 | 3.0 | 4.0 | 0.00 | 0.00 | 0.00 | 89 | 1022.3 |
| 20260906021039 | 54 | 341 | 4.0 | 6.0 | 0.00 | 0.00 | 0.00 | 89 | 1022.0 |
| 20260906020539 | 54 | 324 | 3.0 | 5.0 | 0.00 | 0.00 | 0.00 | 89 | 1022.0 |
| 20260906020039 | 54 | 333 | 4.0 | 6.0 | 0.00 | 0.00 | 0.00 | 89 | 1022.0 |
| 20260906015539 | 54 | 343 | 5.0 | 6.0 | 0.00 | 0.00 | 0.00 | 89 | 1022.0 |
| 20260906015039 | 54 | 342 | 5.0 | 6.0 | 0.00 | 0.00 | 0.00 | 89 | 1022.0 |
| 20260906014923 | 54 | 351 | 6.0 | 7.0 | 0.00 | 0.00 | 0.00 | 89 | 1022.2 |
| 20260906014540 | 54 | 347 | 5.0 | 6.0 | 0.00 | 0.00 | 0.00 | 89 | 1022.0 |
| 20260906014425 | 54 | 340 | 5.0 | 7.0 | 0.00 | 0.00 | 0.00 | 89 | 1022.2 |
| 20260906014039 | 54 | 351 | 5.0 | 6.0 | 0.00 | 0.00 | 0.00 | 89 | 1022.0 |
| 20260906013923 | 54 | 346 | 4.0 | 5.0 | 0.00 | 0.00 | 0.00 | 89 | 1022.1 |
| 20260906013423 | 54 | 346 | 5.0 | 7.0 | 0.00 | 0.00 | 0.00 | 88 | 1022.0 |
| 20260906012923 | 55 | 344 | 5.0 | 6.0 | 0.00 | 0.00 | 0.00 | 88 | 1022.0 |
| 20260906012539 | 55 | 352 | 6.0 | 7.0 | 0.00 | 0.00 | 0.00 | 88 | 1022.0 |
| 20260906012424 | 55 | 360 | 6.0 | 7.0 | 0.00 | 0.00 | 0.00 | 88 | 1022.0 |
| 20260906011923 | 55 | 13 | 6.0 | 8.0 | 0.00 | 0.00 | 0.00 | 88 | 1021.8 |
| 20260906011424 | 55 | 3 | 5.0 | 6.0 | 0.00 | 0.00 | 0.00 | 88 | 1021.8 |
| 20260906010923 | 55 | 11 | 6.0 | 7.0 | 0.00 | 0.00 | 0.00 | 87 | 1021.8 |
| 20260906010423 | 55 | 5 | 7.0 | 7.0 | 0.00 | 0.00 | 0.00 | 87 | 1021.7 |
| 20260906010039 | 55 | 16 | 7.0 | 8.0 | 0.00 | 0.00 | 0.00 | 88 | 1022.0 |
| 20260906005923 | 55 | 12 | 7.0 | 8.0 | 0.00 | 0.00 | 0.00 | 88 | 1021.8 |
| 20260906005424 | 55 | 10 | 6.0 | 7.0 | 0.00 | 0.00 | 0.00 | 88 | 1021.7 |
| 20260906004923 | 55 | 6 | 6.0 | 7.0 | 0.00 | 0.00 | 0.00 | 88 | 1021.7 |
| 20260906004426 | 55 | 13 | 7.0 | 8.0 | 0.00 | 0.00 | 0.00 | 87 | 1021.7 |
| 20260906004039 | 55 | 17 | 8.0 | 9.0 | 0.00 | 0.00 | 0.00 | 87 | 1022.0 |
| 20260906003539 | 55 | 10 | 7.0 | 8.0 | 0.00 | 0.00 | 0.00 | 87 | 1022.0 |
| 20260906003040 | 55 | 8 | 6.0 | 8.0 | 0.00 | 0.00 | 0.00 | 87 | 1022.0 |
| 20260906002539 | 55 | 14 | 6.0 | 7.0 | 0.00 | 0.00 | 0.00 | 87 | 1022.0 |
| 20260906002423 | 55 | 13 | 6.0 | 7.0 | 0.00 | 0.00 | 0.00 | 87 | 1021.8 |
| 20260906002039 | 55 | 360 | 6.0 | 8.0 | 0.00 | 0.00 | 0.00 | 87 | 1022.0 |
| 20260906001923 | 55 | 8 | 8.0 | 9.0 | 0.00 | 0.00 | 0.00 | 86 | 1021.8 |
| 20260906001539 | 55 | 17 | 8.0 | 9.0 | 0.00 | 0.00 | 0.00 | 86 | 1022.0 |
| 20260906001039 | 55 | 7 | 6.0 | 7.0 | 0.00 | 0.00 | 0.00 | 86 | 1022.0 |
| 20260906000923 | 55 | 2 | 7.0 | 8.0 | 0.00 | 0.00 | 0.00 | 86 | 1021.8 |
| 20260906000539 | 55 | 11 | 8.0 | 9.0 | 0.00 | 0.00 | 0.00 | 86 | 1022.0 |
| 20260906000040 | 55 | 4 | 6.0 | 7.0 | 0.00 | 0.00 | 0.00 | 86 | 1022.0 |
| 20260905235539 | 55 | 353 | 6.0 | 9.0 | 0.00 | 0.00 | 0.00 | 86 | 1022.0 |
| 20260905235423 | 55 | 354 | 6.0 | 7.0 | 0.00 | 0.00 | 0.00 | 86 | 1022.0 |
| 20260905234923 | 55 | 347 | 6.0 | 7.0 | 0.00 | 0.00 | 0.00 | 85 | 1022.0 |
| 20260905234539 | 55 | 346 | 6.0 | 7.0 | 0.00 | 0.00 | 0.00 | 85 | 1022.0 |
| 20260905234425 | 55 | 346 | 5.0 | 6.0 | 0.00 | 0.00 | 0.00 | 85 | 1022.0 |
| 20260905233923 | 55 | 352 | 6.0 | 7.0 | 0.00 | 0.00 | 0.00 | 85 | 1022.0 |
| 20260905233540 | 56 | 351 | 7.0 | 9.0 | 0.00 | 0.00 | 0.00 | 85 | 1022.0 |
| 20260905233423 | 56 | 351 | 7.0 | 11.0 | 0.00 | 0.00 | 0.00 | 84 | 1022.0 |
| 20260905233039 | 56 | 348 | 7.0 | 9.0 | 0.00 | 0.00 | 0.00 | 84 | 1022.0 |
| 20260905232923 | 56 | 332 | 4.0 | 8.0 | 0.00 | 0.00 | 0.00 | 84 | 1021.8 |
| 20260905232424 | 56 | 349 | 6.0 | 8.0 | 0.00 | 0.00 | 0.00 | 84 | 1021.8 |
| 20260905231923 | 56 | 354 | 6.0 | 9.0 | 0.00 | 0.00 | 0.00 | 84 | 1021.8 |
| 20260905231424 | 56 | 345 | 7.0 | 8.0 | 0.00 | 0.00 | 0.00 | 83 | 1021.8 |
| 20260905230923 | 56 | 344 | 5.0 | 7.0 | 0.00 | 0.00 | 0.00 | 84 | 1021.7 |
| 20260905230423 | 56 | 357 | 8.0 | 9.0 | 0.00 | 0.00 | 0.00 | 84 | 1021.7 |
| 20260905225923 | 56 | 351 | 6.0 | 8.0 | 0.00 | 0.00 | 0.00 | 84 | 1021.7 |
| 20260905225423 | 56 | 346 | 6.0 | 8.0 | 0.00 | 0.00 | 0.00 | 84 | 1021.7 |